カタログに戻る

CZ-4 DEB

運用中SSO
NORAD 26236·DEBRIS·🇨🇳 China

打ち上げ Oct 14, 1999 から Taiyuan Satellite Launch Center

Loading…

次のパス (今後24時間)

TLE

最新Source: Space-Track

元期: Sep 14, 2026, 09:41 UTC

1 26236U 99057EA  26257.40375223  .00000199  00000-0  75435-4 0  9994
2 26236  98.6972 309.4575 0088271 233.0829 138.3714 14.39752376389383

AllMySatでCZ-4 DEBをリアルタイム追跡

Download on the App Store